Погода в Чернигове

Погода в Чернигове : погода сейчас, прогноз погоды и архив. Всё, что Вы хотите узнать о погоде в Чернигове!

Хотите узнать прогноз погоды в Чернигове? Тогда Вам сюда: Погода в Чернигове

Поиск расширенной информации на нашем сайте:

Другие новости

Новости СМИ2

Главная страница сайта

Новости сайта

03.07.2017

Напоминаем, что на нашем специализированном сайте Метеоцентр.Азия вы можете получить высокодетализированные автоматические прогнозы погоды по пунктам России, СНГ и мира в авиационном формате (включающие направление и скорость ветра, видимость, явления погоды, количество и форму облачности, нижнюю и верхнюю границу облачности).

Рекомендуем: Лечение мастита у женщин в домашних домашние лечения мастита.

Погода в Чернигове - сегодня

Время (UTC), дата Ветер
(°,м/с) 
Видим.   Явления Облачность Т
(°С)
Тd
(°С)
f(%) Тe
(°С)
Pmin
(гПа)
dP
(гПа)
Po
(мм)
O2
(г/м3)
Тmin Tmax R s Состояние
почвы
21 18.09.17 240 (ЮЗ) н/о    ясно 
+13.9 +5.2 56 +14  1014.1  0.8  750  287           
00 19.09.17 240 (ЮЗ) н/о    ясно 
+11.9 +5.9 67 +11  1015.5  1.3  751  289           
03 19.09.17 тихо ()   н/о    ясно 
+6.3 +4.7 89 +6  1017.1  1.2  752  295           
06 19.09.17 280 (З) 10 км    1/0 верхняя 
[Ci fib]
+12.3 +7.1 71 +12  1018.8  753  289  +5.4         
09 19.09.17 280 (З) 20000 м    3/0 верхняя 
[Ci fib]
+17.8 +6 46 +18  1019.4  0.9  754  284           
12 19.09.17 260 (З) 20000 м    4/3 1000 м верхняя 
[Cu hum|Ci fib]
+21 +5.2 36 +21  1019  -0.3  754  281           
15 19.09.17 280 (З) 20000 м    6/0 средняя, верхняя 
[Ac trans|Ci fib]
+18.8 +7.1 46 +20  1018.5  -0.5  753  283           
18 19.09.17 тихо ()   н/о    10/0 средняя 
[Ac und]
+13.1 +8.5 74 +13  1019.8  754  288    +21.7       
21 19.09.17 300 (СЗ) н/о  в посл. час ливневой дождь  10/6 960 м кучево-дожд., средняя 
[Cb cap|Ac und]
+11.7 +10.5 92 +15  1020.2  0.3  754  289           
00 20.09.17 тихо ()   н/о  слаб. ливневой дождь  10/10 360 м кучево-дожд. 
[Cb cap]
+11.8 +10.6 92 +14  1020  -0.2  754  289           
03 20.09.17 150 (ЮВ) н/о  в посл. час ливневой дождь  10/6 900 м кучево-дожд., средняя 
[Cb cap|Ac und]
+11.3 +9.9 91 +13  1020.4  0.4  754  290           
06 20.09.17 090 (В) 4000 м  слаб. ливневой дождь  10/8 300 м кучево-дожд., средняя 
[Cb cap|Ac und]
+11.6 +10.8 95 +14  1019.7  -0.7  754  289  +10.5       
09 20.09.17 090 (В) 4000 м  гроза, ливневой дождь  10/8 1000 м кучево-дожд., средняя 
[Cb calv|Ac und]
+13 +11.1 88 +16  1017.8  -1.8  753  287           
12 20.09.17 040 (СВ) н/о  гроза, ливневой дождь  10/10 330 м кучево-дожд. 
[Cb calv]
+14.1 +11.5 84 +17  1017  -0.7  752  286           
15 20.09.17 040 (СВ) 4000 м  гроза, ливневой дождь  10/10 330 м кучево-дожд. 
[Cb calv]
+13 +11.9 93 +17  1017  -0.1  752  287           
18 20.09.17 040 (СВ) н/о  в посл. час гроза{ливн. осадки}  10/6 1000 м кучево-дожд., средняя 
[Cb calv|Ac und]
+13.2 +10.1 81 +14  1016.7  -0.3  752  287    +14.1  15     
21 20.09.17 090 (В) н/о    10/0 средняя 
[Ac und]
+15.8 +9 64 +16  1014.4  -2.1  750  284           
00 21.09.17 090 (В) н/о    3/0 средняя 
[Ac trans]
+14.3 +10.1 76 +15  1013.4  -1.1  749  285           
03 21.09.17 090 (В) н/о    6/6 1000 м 
[Sc]
+14.4 +9.1 70 +14  1013.5  0.1  749  285           
06 21.09.17 120 (ЮВ) 10 км    6/0 средняя 
[Ac trans]
+14.2 +10.4 78 +17  1012.8  -0.7  749  285  +12.7         
09 21.09.17 100 (В) 10 км  в посл. час ливневой дождь  8/5 1000 м кучево-дожд., средняя, верхняя 
[Cb calv|Ac trans|Ci fib]
+19.6 +11.9 61 +24  1011.9  -0.6  748  279           
12 21.09.17 090 (В) 20000 м  {ливн. осадки}  8/6 1000 м верхняя 
[Sc|Ci]
+23.2 +15 60 +32  1010.9  -0.8  748  275      0.0     
15 21.09.17 090 (В) 10 км    8/3 1000 м верхняя 
[Sc|Ci fib]
+23.5 +15.4 60 +33  1009.7  -1.2  747  274           
18 21.09.17 080 (В) н/о    8/6 1000 м кучево-дожд., верхняя 
[Cb calv|Ci fib]
+22 +15.9 68 +32  1010.3  0.6  747  275    +24.7  0.0     
21 21.09.17 050 (СВ) н/о    4/3 1000 м верхняя 
[Sc|Ci fib]
+19.2 +14.6 75 +27  1011.3  0.8  748  279           
Время (UTC), дата Ветер
(°,м/с) 
Видим.   Явления Облачность Т
(°С)
Тd
(°С)
f(%) Тe
(°С)
Pmin
(гПа)
dP
(гПа)
Po
(мм)
O2
(г/м3)
Тmin Tmax R s Состояние
почвы

Для получения пояснительной информации подведите курсор к названию столбца.

ПОГОДА в Чернигове - архив

Всё, что Вы хотите узнать о погоде в Чернигове - удобно и подробно!

Выберите нужную дату (начиная с 1 января 2015* года) и нажмите кнопку "Найти".
Будут отображены архивные сводки погоды по пункту Чернигов, начиная с указанной даты.


Отображать данные в формате CSV (для использования в таблицах Excel)


Внимание! Наш архив погоды предназначен исключительно для личного некоммерческого использования в познавательных целях. Если Вам необходимы официальные справки о состоянии погоды (для производственных, юридических, коммерческих и т.п. целей), обращайтесь в органы Росгидромета.

*Примечание: данная дата относится к архиву по метеостанциям СССР (Россия, СНГ, Балтия).
Архив по метеостанциям Зарубежной Европы и Азии (кроме Китая) хранится 10 дней, по другим регионам земного шара (Китай, Африка, Америка, Австралия, Океания) - 1 день.

Чернигов - район местоположения метеостанции


Название, широта, долгота, высота метеостанции:
Чернигов 51.5°ш. 31.2°д. 141 м над ур. моря [Украина]

Дополнительная информация

В oтличие oт бoльшинства пoгoдных сайтoв мы публикуем пoдрoбную метеoинфoрмацию в детальнoм прoфессиoнальнoм фoрмате.

Характеристики температуры и влажнoсти вoздуха измеряются на высoте 2 м в тени вдали oт зданий и деревьев.
Скoрoсть ветра измеряется на высoте 10 м (на урoвне рoста челoвека скoрoсть ветра ниже в 1.5-2 раза). Если метеoстанция нахoдится в гoрoде или в лесу, тo скoрoсть ветра занижена на 2-4 м/с пo сравнению с oткрытым местoм. Скoрoсть ветра над акватoриями крупных рек и oзёр, а также на вершинах хoлмoв на 2-5 м/с выше, чем в oбычных услoвиях.
Атмoсфернoе давление в разных тoчках местнoсти мoжет значительнo oтличаться oт давления на метеoстанции, в зависимoсти oт услoвий рельефа (при пoдъёме на 10 м давление пoнижается примернo на 1 мм рт.ст.).